Simultaneous Nadir Overpasses (SNOs) Predictions

Prediction of SNOs between METOP-A and NOAA-19 Satellite Orbit:

Table of predicted SNOs for the next 14.0 days since TLE Epoch: 6/12/2021
Index Date (METOP-A) Time (METOP-A) Lat,Lon (METOP-A) SZA (METOP-A ) Date (NOAA-19) Time (NOAA-19) Lat,Lon (NOAA-19) SZA (NOAA-19 ) Distance(km) Time Diff (sec)
1 06/13/2021 23:48:51 -80.84, 11.49 122.36 06/13/2021 23:47:41 -80.83, 11.33 122.38 3.09 70
2 06/14/2021 00:39:32 80.83, 178.61 57.62 06/14/2021 00:38:45 80.83, 178.69 57.62 1.45 47
3 06/14/2021 01:30:13 -80.83, -14.00 122.38 06/14/2021 01:29:41 -80.83, -14.05 122.38 0.76 32
4 06/14/2021 02:20:53 80.84, 153.47 57.64 06/14/2021 02:20:45 80.84, 153.31 57.63 2.85 8
5 06/14/2021 03:11:35 -80.82, -39.49 122.40 06/14/2021 03:11:41 -80.84, -39.42 122.38 1.83 6
6 06/14/2021 04:02:15 80.83, 127.97 57.62 06/14/2021 04:02:45 80.84, 127.93 57.63 0.86 30
7 06/14/2021 04:52:56 -80.84, -64.64 122.38 06/14/2021 04:53:41 -80.84, -64.79 122.38 2.73 45
8 06/14/2021 05:43:36 80.85, 102.83 57.63 06/14/2021 05:44:44 80.84, 102.93 57.64 1.79 68
9 06/25/2021 02:43:35 -80.81, -32.93 122.54 06/25/2021 02:42:32 -80.81, -33.11 122.55 3.13 63
10 06/25/2021 03:34:15 80.82, 134.49 57.47 06/25/2021 03:33:33 80.82, 134.41 57.46 1.39 42
11 06/25/2021 04:24:56 -80.83, -58.08 122.53 06/25/2021 04:24:31 -80.82, -58.12 122.53 0.77 25
12 06/25/2021 05:15:36 80.83, 109.34 57.49 06/25/2021 05:15:32 80.83, 109.40 57.48 1.19 4
13 06/25/2021 06:06:18 -80.82, -83.57 122.54 06/25/2021 06:06:31 -80.82, -83.49 122.53 1.65 13
14 06/25/2021 06:56:58 80.82, 83.85 57.48 06/25/2021 06:57:32 80.83, 84.02 57.49 3.05 34
15 06/25/2021 07:47:39 -80.83,-108.72 122.52 06/25/2021 07:48:31 -80.83,-108.87 122.52 2.70 52



Historial Predications of SNOs between METOP-A and NOAA-19
